Location: ?????
(55.6500°N, 37.2500°E)
Time: 07:11:16
(UTC+00:00)

Geosat FO - Pass Details

Date: 19 May 2025
Orbit: 386 x 491 km, 108.0° (Epoch: 23 June)

Event Time Altitude Azimuth Distance (km) Brightness Sun altitude
Exits shadow 19:54:43 - 98° (E) 1,812 7.2 -11.9°
Reaches altitude 10° 19:55:47 10° 87° (E) 1,429 6.7 -11.9°
Drops below altitude 10° 20:00:14 10° 352° (N) 1,429 8.3 -12.2°
Enters shadow 20:53:46 -69° 145° (SE) 12,433 11.6 -14.0°
Maximum altitude 21:29:18 61° 238° (WSW) 450 4.2 -14.4°
